| time (UTC) | temp C | wind direction | speed KPH | gust KPH | rain 1hr cm | rain 24hr cm | rain mn cm | humidity % | barometer mb |
| 20260507203001 | 11 | 194 | 0.0 | 0.0 | 0.00 | 0.00 | 0.00 | 72 | 1015.0 |
| 20260507202604 | 11 | 194 | 0.0 | 1.6 | 0.00 | 0.00 | 0.00 | 71 | 1014.9 |
| 20260507202104 | 11 | 194 | 0.0 | 1.6 | 0.00 | 0.00 | 0.00 | 71 | 1014.9 |
| 20260507201600 | 11 | 194 | 0.0 | 1.6 | 0.00 | 0.00 | 0.00 | 71 | 1014.9 |
| 20260507201100 | 11 | 194 | 0.0 | 1.6 | 0.00 | 0.00 | 0.00 | 70 | 1014.8 |
| 20260507200601 | 11 | 194 | 0.0 | 0.0 | 0.00 | 0.00 | 0.00 | 71 | 1014.7 |
| 20260507200106 | 11 | 194 | 0.0 | 0.0 | 0.00 | 0.00 | 0.00 | 71 | 1014.7 |
| 20260507195600 | 11 | 194 | 0.0 | 0.0 | 0.00 | 0.00 | 0.00 | 71 | 1014.7 |
| 20260507195059 | 11 | 194 | 0.0 | 0.0 | 0.00 | 0.00 | 0.00 | 70 | 1014.6 |
| 20260507194558 | 11 | 194 | 0.0 | 0.0 | 0.00 | 0.00 | 0.00 | 70 | 1014.6 |
| 20260507194059 | 11 | 194 | 0.0 | 0.0 | 0.00 | 0.00 | 0.00 | 71 | 1014.6 |
| 20260507193559 | 11 | 194 | 0.0 | 0.0 | 0.00 | 0.00 | 0.00 | 71 | 1014.6 |
| 20260507193102 | 11 | 194 | 0.0 | 1.6 | 0.00 | 0.00 | 0.00 | 70 | 1014.5 |
| 20260507192558 | 12 | 194 | 0.0 | 1.6 | 0.00 | 0.00 | 0.00 | 70 | 1014.5 |
| 20260507192100 | 12 | 194 | 0.0 | 1.6 | 0.00 | 0.00 | 0.00 | 70 | 1014.4 |
| 20260507191559 | 12 | 223 | 0.0 | 0.0 | 0.00 | 0.00 | 0.00 | 71 | 1014.5 |
| 20260507191058 | 12 | 223 | 0.0 | 1.6 | 0.00 | 0.00 | 0.00 | 70 | 1014.4 |
| 20260507190557 | 12 | 223 | 0.0 | 4.8 | 0.00 | 0.00 | 0.00 | 69 | 1014.5 |
| 20260507190058 | 12 | 225 | 0.0 | 9.7 | 0.00 | 0.00 | 0.00 | 68 | 1014.5 |
| 20260507185557 | 12 | 296 | 1.6 | 9.7 | 0.00 | 0.00 | 0.00 | 66 | 1014.5 |
| 20260507185057 | 12 | 140 | 0.0 | 6.4 | 0.00 | 0.00 | 0.00 | 65 | 1014.4 |
| 20260507184558 | 12 | 124 | 0.0 | 1.6 | 0.00 | 0.00 | 0.00 | 64 | 1014.4 |
| 20260507184057 | 12 | 103 | 0.0 | 8.0 | 0.00 | 0.00 | 0.00 | 64 | 1014.4 |
| 20260507183558 | 13 | 91 | 1.6 | 8.0 | 0.00 | 0.00 | 0.00 | 63 | 1014.4 |
| 20260507183056 | 13 | 138 | 0.0 | 4.8 | 0.00 | 0.00 | 0.00 | 61 | 1014.4 |
| 20260507182557 | 13 | 298 | 0.0 | 4.8 | 0.00 | 0.00 | 0.00 | 61 | 1014.4 |
| 20260507182056 | 13 | 132 | 0.0 | 9.7 | 0.00 | 0.00 | 0.00 | 59 | 1014.4 |
| 20260507181556 | 13 | 328 | 0.0 | 9.7 | 0.00 | 0.00 | 0.00 | 59 | 1014.3 |
| 20260507181055 | 13 | 326 | 0.0 | 8.0 | 0.00 | 0.00 | 0.00 | 57 | 1014.3 |
| 20260507180556 | 13 | 302 | 0.0 | 1.6 | 0.00 | 0.00 | 0.00 | 58 | 1014.1 |
| 20260507180105 | 13 | 302 | 0.0 | 6.4 | 0.00 | 0.00 | 0.00 | 57 | 1014.1 |
| 20260507175555 | 13 | 266 | 0.0 | 8.0 | 0.00 | 0.00 | 0.00 | 55 | 1014.1 |
| 20260507175055 | 13 | 293 | 0.0 | 3.2 | 0.00 | 0.00 | 0.00 | 54 | 1014.0 |
| 20260507174625 | 14 | 136 | 0.0 | 3.2 | 0.00 | 0.00 | 0.00 | 53 | 1014.0 |
| 20260507174054 | 14 | 136 | 0.0 | 3.2 | 0.00 | 0.00 | 0.00 | 53 | 1014.0 |
| 20260507173554 | 14 | 137 | 0.0 | 1.6 | 0.00 | 0.00 | 0.00 | 52 | 1014.0 |
| 20260507173056 | 14 | 137 | 0.0 | 4.8 | 0.00 | 0.00 | 0.00 | 52 | 1014.0 |
| 20260507172555 | 14 | 140 | 0.0 | 1.6 | 0.00 | 0.00 | 0.00 | 51 | 1014.0 |
| 20260507172053 | 14 | 140 | 0.0 | 4.8 | 0.00 | 0.00 | 0.00 | 50 | 1014.0 |
| 20260507171609 | 14 | 139 | 0.0 | 4.8 | 0.00 | 0.00 | 0.00 | 50 | 1014.0 |
| 20260507171053 | 14 | 142 | 0.0 | 4.8 | 0.00 | 0.00 | 0.00 | 50 | 1014.0 |
| 20260507170553 | 14 | 179 | 0.0 | 1.6 | 0.00 | 0.00 | 0.00 | 49 | 1014.0 |
| 20260507170053 | 14 | 179 | 0.0 | 1.6 | 0.00 | 0.00 | 0.00 | 49 | 1014.1 |
| 20260507165555 | 14 | 179 | 0.0 | 1.6 | 0.00 | 0.00 | 0.00 | 48 | 1014.1 |
| 20260507165052 | 14 | 177 | 0.0 | 3.2 | 0.00 | 0.00 | 0.00 | 47 | 1014.1 |
| 20260507164554 | 15 | 158 | 0.0 | 3.2 | 0.00 | 0.00 | 0.00 | 48 | 1014.1 |
| 20260507164054 | 15 | 159 | 0.0 | 3.2 | 0.00 | 0.00 | 0.00 | 48 | 1014.1 |
| 20260507163552 | 15 | 158 | 0.0 | 4.8 | 0.00 | 0.00 | 0.00 | 47 | 1014.1 |
| 20260507163051 | 15 | 207 | 0.0 | 8.0 | 0.00 | 0.00 | 0.00 | 46 | 1014.1 |
| 20260507162551 | 15 | 124 | 0.0 | 8.0 | 0.00 | 0.00 | 0.00 | 46 | 1014.0 |
| 20260507162054 | 15 | 137 | 0.0 | 6.4 | 0.00 | 0.00 | 0.00 | 46 | 1014.1 |
| 20260507161553 | 15 | 109 | 0.0 | 6.4 | 0.00 | 0.00 | 0.00 | 45 | 1014.1 |
| 20260507161054 | 15 | 338 | 0.0 | 11.3 | 0.00 | 0.00 | 0.00 | 45 | 1014.1 |
| 20260507160550 | 15 | 142 | 1.6 | 11.3 | 0.00 | 0.00 | 0.00 | 46 | 1014.0 |
| 20260507160112 | 15 | 325 | 1.6 | 6.4 | 0.00 | 0.00 | 0.00 | 45 | 1014.1 |
| 20260507155553 | 16 | 115 | 1.6 | 8.0 | 0.00 | 0.00 | 0.00 | 44 | 1014.1 |
| 20260507155052 | 16 | 306 | 3.2 | 9.7 | 0.00 | 0.00 | 0.00 | 42 | 1014.0 |
| 20260507154548 | 16 | 118 | 0.0 | 9.7 | 0.00 | 0.00 | 0.00 | 46 | 1014.1 |
| 20260507154049 | 16 | 343 | 0.0 | 9.7 | 0.00 | 0.00 | 0.00 | 46 | 1014.1 |
| 20260507153551 | 16 | 108 | 1.6 | 8.0 | 0.00 | 0.00 | 0.00 | 46 | 1014.2 |
| 20260507153048 | 16 | 322 | 1.6 | 9.7 | 0.00 | 0.00 | 0.00 | 45 | 1014.2 |
| 20260507152558 | 16 | 344 | 1.6 | 6.4 | 0.00 | 0.00 | 0.00 | 47 | 1014.2 |
| 20260507152050 | 16 | 173 | 1.6 | 8.0 | 0.00 | 0.00 | 0.00 | 45 | 1014.2 |
| 20260507151550 | 16 | 199 | 0.0 | 16.1 | 0.00 | 0.00 | 0.00 | 46 | 1014.2 |
| 20260507151045 | 16 | 305 | 1.6 | 16.1 | 0.00 | 0.00 | 0.00 | 45 | 1014.3 |
| 20260507150545 | 16 | 145 | 0.0 | 12.9 | 0.00 | 0.00 | 0.00 | 47 | 1014.3 |
| 20260507150045 | 16 | 120 | 1.6 | 8.0 | 0.00 | 0.00 | 0.00 | 45 | 1014.4 |
| 20260507145547 | 16 | 318 | 0.0 | 8.0 | 0.00 | 0.00 | 0.00 | 47 | 1014.4 |
| 20260507145047 | 16 | 104 | 1.6 | 6.4 | 0.00 | 0.00 | 0.00 | 45 | 1014.4 |
| 20260507144544 | 16 | 161 | 3.2 | 19.3 | 0.00 | 0.00 | 0.00 | 47 | 1014.4 |
| 20260507144043 | 16 | 224 | 1.6 | 19.3 | 0.00 | 0.00 | 0.00 | 46 | 1014.5 |
| 20260507143542 | 16 | 36 | 0.0 | 8.0 | 0.00 | 0.00 | 0.00 | 48 | 1014.6 |
| 20260507143042 | 16 | 331 | 1.6 | 8.0 | 0.00 | 0.00 | 0.00 | 47 | 1014.6 |
| 20260507142541 | 16 | 194 | 0.0 | 8.0 | 0.00 | 0.00 | 0.00 | 46 | 1014.7 |
| 20260507142039 | 16 | 78 | 0.0 | 6.4 | 0.00 | 0.00 | 0.00 | 48 | 1014.7 |
| 20260507141540 | 16 | 188 | 1.6 | 17.7 | 0.00 | 0.00 | 0.00 | 48 | 1014.8 |
| 20260507141039 | 16 | 336 | 6.4 | 17.7 | 0.00 | 0.00 | 0.00 | 46 | 1014.9 |
| 20260507140538 | 16 | 355 | 0.0 | 8.0 | 0.00 | 0.00 | 0.00 | 49 | 1014.9 |
| 20260507140045 | 16 | 278 | 1.6 | 11.3 | 0.00 | 0.00 | 0.00 | 49 | 1015.0 |
| 20260507135539 | 15 | 132 | 1.6 | 11.3 | 0.00 | 0.00 | 0.00 | 48 | 1015.0 |
| 20260507135037 | 16 | 338 | 3.2 | 9.7 | 0.00 | 0.00 | 0.00 | 48 | 1015.0 |
| 20260507134536 | 15 | 211 | 0.0 | 11.3 | 0.00 | 0.00 | 0.00 | 50 | 1015.0 |
| 20260507134034 | 15 | 298 | 1.6 | 8.0 | 0.00 | 0.00 | 0.00 | 52 | 1015.1 |
| 20260507133534 | 15 | 132 | 0.0 | 8.0 | 0.00 | 0.00 | 0.00 | 51 | 1015.2 |
| 20260507133035 | 15 | 76 | 1.6 | 16.1 | 0.00 | 0.00 | 0.00 | 51 | 1015.2 |
| 20260507132533 | 15 | 341 | 6.4 | 16.1 | 0.00 | 0.00 | 0.00 | 48 | 1015.2 |
| 20260507132032 | 15 | 29 | 0.0 | 12.9 | 0.00 | 0.00 | 0.00 | 51 | 1015.2 |
| 20260507131603 | 15 | 245 | 1.6 | 12.9 | 0.00 | 0.00 | 0.00 | 50 | 1015.2 |
| 20260507131031 | 15 | 321 | 1.6 | 17.7 | 0.00 | 0.00 | 0.00 | 50 | 1015.3 |
| 20260507130530 | 15 | 311 | 4.8 | 17.7 | 0.00 | 0.00 | 0.00 | 49 | 1015.2 |
| 20260507130029 | 15 | 153 | 1.6 | 9.7 | 0.00 | 0.00 | 0.00 | 52 | 1015.3 |
| 20260507125529 | 15 | 148 | 1.6 | 12.9 | 0.00 | 0.00 | 0.00 | 53 | 1015.3 |
| 20260507125028 | 15 | 316 | 1.6 | 12.9 | 0.00 | 0.00 | 0.00 | 52 | 1015.3 |
| 20260507124531 | 15 | 163 | 1.6 | 9.7 | 0.00 | 0.00 | 0.00 | 52 | 1015.4 |
| 20260507124028 | 15 | 286 | 1.6 | 12.9 | 0.00 | 0.00 | 0.00 | 52 | 1015.4 |
| 20260507123528 | 15 | 116 | 1.6 | 12.9 | 0.00 | 0.00 | 0.00 | 52 | 1015.3 |
| 20260507123033 | 15 | 157 | 1.6 | 9.7 | 0.00 | 0.00 | 0.00 | 51 | 1015.3 |
| 20260507122528 | 15 | 11 | 1.6 | 8.0 | 0.00 | 0.00 | 0.00 | 52 | 1015.4 |
| 20260507122024 | 14 | 255 | 0.0 | 6.4 | 0.00 | 0.00 | 0.00 | 56 | 1015.4 |
| 20260507121524 | 14 | 155 | 1.6 | 6.4 | 0.00 | 0.00 | 0.00 | 57 | 1015.4 |
| 20260507121023 | 14 | 136 | 1.6 | 6.4 | 0.00 | 0.00 | 0.00 | 58 | 1015.4 |
| 20260507120523 | 14 | 160 | 1.6 | 6.4 | 0.00 | 0.00 | 0.00 | 59 | 1015.5 |
| 20260507120029 | 13 | 126 | 0.0 | 8.0 | 0.00 | 0.00 | 0.00 | 61 | 1015.5 |
| 20260507115518 | 13 | 142 | 0.0 | 8.0 | 0.00 | 0.00 | 0.00 | 62 | 1015.6 |
| 20260507115018 | 13 | 163 | 0.0 | 8.0 | 0.00 | 0.00 | 0.00 | 62 | 1015.6 |
| 20260507114517 | 13 | 112 | 3.2 | 8.0 | 0.00 | 0.00 | 0.00 | 62 | 1015.7 |
| 20260507114020 | 13 | 240 | 1.6 | 12.9 | 0.00 | 0.00 | 0.00 | 62 | 1015.7 |
| 20260507113516 | 13 | 156 | 1.6 | 12.9 | 0.00 | 0.00 | 0.00 | 62 | 1015.7 |
| 20260507113028 | 13 | 170 | 0.0 | 4.8 | 0.00 | 0.00 | 0.00 | 63 | 1015.8 |
| 20260507112516 | 12 | 142 | 1.6 | 4.8 | 0.00 | 0.00 | 0.00 | 64 | 1015.8 |
| 20260507112011 | 12 | 175 | 0.0 | 4.8 | 0.00 | 0.00 | 0.00 | 64 | 1015.8 |
| 20260507111509 | 12 | 75 | 0.0 | 8.0 | 0.00 | 0.00 | 0.00 | 65 | 1015.9 |
| 20260507111010 | 12 | 196 | 1.6 | 8.0 | 0.00 | 0.00 | 0.00 | 65 | 1015.9 |
| 20260507110508 | 12 | 111 | 0.0 | 6.4 | 0.00 | 0.00 | 0.00 | 67 | 1015.9 |
| 20260507110007 | 12 | 146 | 0.0 | 4.8 | 0.00 | 0.00 | 0.00 | 66 | 1016.0 |
| 20260507105505 | 12 | 107 | 0.0 | 6.4 | 0.00 | 0.00 | 0.00 | 66 | 1016.0 |
| 20260507105003 | 12 | 134 | 1.6 | 9.7 | 0.00 | 0.00 | 0.00 | 65 | 1016.0 |
| 20260507104504 | 12 | 173 | 0.0 | 9.7 | 0.00 | 0.00 | 0.00 | 67 | 1016.1 |
| 20260507104001 | 11 | 125 | 0.0 | 9.7 | 0.00 | 0.00 | 0.00 | 68 | 1016.2 |
| 20260507103600 | 11 | 235 | 0.0 | 11.3 | 0.00 | 0.00 | 0.00 | 68 | 1016.2 |
| 20260507103100 | 11 | 161 | 1.6 | 11.3 | 0.00 | 0.00 | 0.00 | 67 | 1016.2 |
| 20260507102559 | 11 | 161 | 0.0 | 8.0 | 0.00 | 0.00 | 0.00 | 68 | 1016.2 |
| 20260507102056 | 11 | 138 | 0.0 | 8.0 | 0.00 | 0.00 | 0.00 | 69 | 1016.1 |
| 20260507101557 | 11 | 153 | 0.0 | 8.0 | 0.00 | 0.00 | 0.00 | 69 | 1016.1 |
| 20260507101053 | 11 | 180 | 0.0 | 4.8 | 0.00 | 0.00 | 0.00 | 71 | 1016.1 |
| 20260507100551 | 11 | 157 | 0.0 | 6.4 | 0.00 | 0.00 | 0.00 | 70 | 1016.1 |
| 20260507100057 | 11 | 109 | 0.0 | 6.4 | 0.00 | 0.00 | 0.00 | 71 | 1016.1 |
| 20260507095549 | 10 | 252 | 0.0 | 6.4 | 0.00 | 0.00 | 0.00 | 71 | 1016.1 |
| 20260507095049 | 10 | 126 | 0.0 | 3.2 | 0.00 | 0.00 | 0.00 | 72 | 1016.1 |
| 20260507094547 | 10 | 119 | 0.0 | 3.2 | 0.00 | 0.00 | 0.00 | 73 | 1016.1 |
| 20260507094048 | 10 | 193 | 0.0 | 4.8 | 0.00 | 0.00 | 0.00 | 74 | 1016.2 |
| 20260507093544 | 10 | 182 | 0.0 | 4.8 | 0.00 | 0.00 | 0.00 | 73 | 1016.2 |
| 20260507093043 | 10 | 161 | 0.0 | 4.8 | 0.00 | 0.00 | 0.00 | 74 | 1016.1 |
| 20260507092542 | 10 | 106 | 0.0 | 4.8 | 0.00 | 0.00 | 0.00 | 74 | 1016.1 |
| 20260507092044 | 10 | 290 | 0.0 | 4.8 | 0.00 | 0.00 | 0.00 | 75 | 1016.1 |
| 20260507091542 | 9 | 227 | 0.0 | 3.2 | 0.00 | 0.00 | 0.00 | 75 | 1016.1 |
| 20260507091041 | 9 | 123 | 0.0 | 3.2 | 0.00 | 0.00 | 0.00 | 76 | 1016.1 |
| 20260507090536 | 9 | 119 | 0.0 | 9.7 | 0.00 | 0.00 | 0.00 | 77 | 1016.1 |
| 20260507090035 | 9 | 112 | 0.0 | 9.7 | 0.00 | 0.00 | 0.00 | 76 | 1016.2 |
| 20260507085534 | 9 | 259 | 0.0 | 6.4 | 0.00 | 0.00 | 0.00 | 77 | 1016.1 |
| 20260507085033 | 9 | 169 | 0.0 | 3.2 | 0.00 | 0.00 | 0.00 | 78 | 1016.1 |
| 20260507084547 | 8 | 165 | 0.0 | 3.2 | 0.00 | 0.00 | 0.00 | 78 | 1016.2 |
| 20260507084031 | 8 | 125 | 0.0 | 6.4 | 0.00 | 0.00 | 0.00 | 78 | 1016.2 |
| 20260507083530 | 8 | 132 | 0.0 | 3.2 | 0.00 | 0.00 | 0.00 | 79 | 1016.2 |
| 20260507083029 | 8 | 132 | 0.0 | 4.8 | 0.00 | 0.00 | 0.00 | 79 | 1016.2 |
| 20260507082528 | 8 | 136 | 0.0 | 6.4 | 0.00 | 0.00 | 0.00 | 79 | 1016.1 |
| 20260507082026 | 8 | 147 | 0.0 | 6.4 | 0.00 | 0.00 | 0.00 | 79 | 1016.1 |
| 20260507081525 | 8 | 142 | 0.0 | 1.6 | 0.00 | 0.00 | 0.00 | 79 | 1016.1 |
| 20260507081025 | 8 | 139 | 0.0 | 4.8 | 0.00 | 0.00 | 0.00 | 80 | 1016.1 |
| 20260507080523 | 8 | 128 | 0.0 | 4.8 | 0.00 | 0.00 | 0.00 | 80 | 1016.1 |
| 20260507080021 | 8 | 127 | 0.0 | 4.8 | 0.00 | 0.00 | 0.00 | 80 | 1016.1 |
| 20260507075520 | 7 | 142 | 0.0 | 3.2 | 0.00 | 0.00 | 0.00 | 80 | 1016.1 |
| 20260507075022 | 7 | 120 | 0.0 | 3.2 | 0.00 | 0.00 | 0.00 | 81 | 1016.1 |
| 20260507074518 | 7 | 157 | 0.0 | 3.2 | 0.00 | 0.00 | 0.00 | 81 | 1016.1 |
| 20260507074018 | 7 | 165 | 0.0 | 3.2 | 0.00 | 0.00 | 0.00 | 81 | 1016.1 |
| 20260507073517 | 7 | 165 | 0.0 | 4.8 | 0.00 | 0.00 | 0.00 | 81 | 1016.0 |
| 20260507073015 | 7 | 162 | 0.0 | 4.8 | 0.00 | 0.00 | 0.00 | 81 | 1016.0 |
| 20260507072515 | 7 | 173 | 0.0 | 4.8 | 0.00 | 0.00 | 0.00 | 81 | 1016.0 |
| 20260507072015 | 7 | 140 | 0.0 | 4.8 | 0.00 | 0.00 | 0.00 | 82 | 1016.0 |
| 20260507071517 | 7 | 128 | 0.0 | 3.2 | 0.00 | 0.00 | 0.00 | 82 | 1015.9 |
| 20260507071014 | 7 | 121 | 0.0 | 9.7 | 0.00 | 0.00 | 0.00 | 82 | 1015.9 |
| 20260507070513 | 7 | 121 | 0.0 | 9.7 | 0.00 | 0.00 | 0.00 | 82 | 1015.9 |
| 20260507070019 | 7 | 134 | 0.0 | 6.4 | 0.00 | 0.00 | 0.00 | 83 | 1015.9 |
| 20260507065512 | 7 | 168 | 0.0 | 6.4 | 0.00 | 0.00 | 0.00 | 83 | 1015.8 |
| 20260507065013 | 7 | 128 | 0.0 | 4.8 | 0.00 | 0.00 | 0.00 | 83 | 1015.8 |
| 20260507064512 | 7 | 159 | 1.6 | 8.0 | 0.00 | 0.00 | 0.00 | 83 | 1015.8 |
| 20260507064011 | 7 | 128 | 0.0 | 6.4 | 0.00 | 0.00 | 0.00 | 83 | 1015.8 |
| 20260507063511 | 7 | 144 | 0.0 | 3.2 | 0.00 | 0.00 | 0.00 | 83 | 1015.8 |
| 20260507063013 | 7 | 157 | 0.0 | 1.6 | 0.00 | 0.00 | 0.00 | 84 | 1015.8 |
| 20260507062509 | 7 | 155 | 0.0 | 3.2 | 0.00 | 0.00 | 0.00 | 84 | 1015.8 |
| 20260507062007 | 7 | 126 | 0.0 | 3.2 | 0.00 | 0.00 | 0.00 | 84 | 1015.8 |
| 20260507061506 | 6 | 121 | 0.0 | 3.2 | 0.00 | 0.00 | 0.00 | 84 | 1015.8 |
| 20260507061007 | 6 | 307 | 0.0 | 4.8 | 0.00 | 0.00 | 0.00 | 84 | 1015.8 |
| 20260507060504 | 6 | 142 | 0.0 | 4.8 | 0.00 | 0.00 | 0.00 | 84 | 1015.7 |
| 20260507060005 | 6 | 142 | 0.0 | 4.8 | 0.00 | 0.00 | 0.00 | 84 | 1015.7 |
| 20260507055503 | 6 | 155 | 0.0 | 3.2 | 0.00 | 0.00 | 0.00 | 84 | 1015.7 |
| 20260507055004 | 6 | 161 | 0.0 | 3.2 | 0.00 | 0.00 | 0.00 | 84 | 1015.7 |
| 20260507054503 | 6 | 131 | 0.0 | 3.2 | 0.00 | 0.00 | 0.00 | 84 | 1015.6 |
| 20260507054002 | 6 | 130 | 0.0 | 3.2 | 0.00 | 0.00 | 0.00 | 84 | 1015.6 |
| 20260507053501 | 6 | 129 | 0.0 | 4.8 | 0.00 | 0.00 | 0.00 | 84 | 1015.6 |
| 20260507053101 | 6 | 129 | 0.0 | 4.8 | 0.00 | 0.00 | 0.00 | 84 | 1015.6 |
| 20260507052600 | 6 | 143 | 0.0 | 3.2 | 0.00 | 0.00 | 0.00 | 84 | 1015.5 |
| 20260507052059 | 6 | 136 | 0.0 | 4.8 | 0.00 | 0.00 | 0.00 | 84 | 1015.5 |
| 20260507051607 | 6 | 136 | 0.0 | 4.8 | 0.00 | 0.00 | 0.00 | 84 | 1015.5 |
| 20260507051057 | 6 | 123 | 0.0 | 4.8 | 0.00 | 0.00 | 0.00 | 84 | 1015.5 |
| 20260507050557 | 6 | 145 | 0.0 | 9.7 | 0.00 | 0.00 | 0.00 | 84 | 1015.6 |
| 20260507050109 | 6 | 132 | 0.0 | 9.7 | 0.00 | 0.00 | 0.00 | 84 | 1015.5 |
| 20260507045556 | 6 | 127 | 0.0 | 9.7 | 0.00 | 0.00 | 0.00 | 85 | 1015.6 |
| 20260507045056 | 6 | 116 | 0.0 | 4.8 | 0.00 | 0.00 | 0.00 | 85 | 1015.6 |
| 20260507044558 | 6 | 145 | 0.0 | 3.2 | 0.00 | 0.00 | 0.00 | 85 | 1015.5 |
| 20260507044059 | 6 | 161 | 0.0 | 1.6 | 0.00 | 0.00 | 0.00 | 85 | 1015.6 |
| 20260507043555 | 6 | 161 | 0.0 | 1.6 | 0.00 | 0.00 | 0.00 | 85 | 1015.6 |
| 20260507043055 | 5 | 159 | 0.0 | 1.6 | 0.00 | 0.00 | 0.00 | 85 | 1015.6 |
| 20260507042555 | 5 | 159 | 0.0 | 1.6 | 0.00 | 0.00 | 0.00 | 85 | 1015.5 |
| 20260507042055 | 5 | 159 | 0.0 | 0.0 | 0.00 | 0.00 | 0.00 | 85 | 1015.6 |
| 20260507041554 | 5 | 159 | 0.0 | 0.0 | 0.00 | 0.00 | 0.00 | 85 | 1015.5 |
| 20260507041157 | 5 | 159 | 0.0 | 0.0 | 0.00 | 0.00 | 0.00 | 85 | 1015.5 |
| 20260507040556 | 5 | 159 | 0.0 | 0.0 | 0.00 | 0.00 | 0.00 | 85 | 1015.5 |
| 20260507040058 | 5 | 159 | 0.0 | 3.2 | 0.00 | 0.00 | 0.00 | 85 | 1015.5 |
| 20260507035556 | 5 | 161 | 0.0 | 0.0 | 0.00 | 0.00 | 0.00 | 85 | 1015.6 |
| 20260507035053 | 5 | 161 | 0.0 | 4.8 | 0.00 | 0.00 | 0.00 | 85 | 1015.6 |
| 20260507034558 | 5 | 161 | 0.0 | 6.4 | 0.00 | 0.00 | 0.00 | 85 | 1015.6 |
| 20260507034052 | 5 | 150 | 0.0 | 0.0 | 0.00 | 0.00 | 0.00 | 85 | 1015.6 |
| 20260507033552 | 5 | 150 | 0.0 | 0.0 | 0.00 | 0.00 | 0.00 | 84 | 1015.6 |
| 20260507033053 | 5 | 148 | 0.0 | 0.0 | 0.00 | 0.00 | 0.00 | 84 | 1015.5 |
| 20260507032552 | 5 | 148 | 0.0 | 0.0 | 0.00 | 0.00 | 0.00 | 84 | 1015.6 |
| 20260507032052 | 5 | 148 | 0.0 | 0.0 | 0.00 | 0.00 | 0.00 | 84 | 1015.5 |
| 20260507031553 | 5 | 148 | 0.0 | 0.0 | 0.00 | 0.00 | 0.00 | 83 | 1015.6 |
| 20260507031049 | 5 | 148 | 0.0 | 0.0 | 0.00 | 0.00 | 0.00 | 83 | 1015.6 |
| 20260507030548 | 6 | 148 | 0.0 | 0.0 | 0.00 | 0.00 | 0.00 | 83 | 1015.6 |
| 20260507030049 | 6 | 148 | 0.0 | 0.0 | 0.00 | 0.00 | 0.00 | 82 | 1015.7 |
| 20260507025549 | 6 | 148 | 0.0 | 0.0 | 0.00 | 0.00 | 0.00 | 82 | 1015.7 |
| 20260507025047 | 6 | 148 | 0.0 | 3.2 | 0.00 | 0.00 | 0.00 | 82 | 1015.6 |
| 20260507024548 | 6 | 148 | 0.0 | 3.2 | 0.00 | 0.00 | 0.00 | 82 | 1015.5 |
| 20260507024049 | 6 | 161 | 0.0 | 4.8 | 0.00 | 0.00 | 0.00 | 82 | 1015.5 |
| 20260507023550 | 6 | 161 | 0.0 | 4.8 | 0.00 | 0.00 | 0.00 | 82 | 1015.4 |
| 20260507023046 | 6 | 161 | 0.0 | 4.8 | 0.00 | 0.00 | 0.00 | 81 | 1015.6 |
| 20260507022545 | 6 | 133 | 0.0 | 4.8 | 0.00 | 0.00 | 0.00 | 81 | 1015.5 |
| 20260507022046 | 6 | 154 | 0.0 | 4.8 | 0.00 | 0.00 | 0.00 | 81 | 1015.4 |
| 20260507021554 | 6 | 203 | 0.0 | 1.6 | 0.00 | 0.00 | 0.00 | 81 | 1015.4 |
| 20260507021043 | 6 | 203 | 0.0 | 1.6 | 0.00 | 0.00 | 0.00 | 81 | 1015.5 |
| 20260507020544 | 6 | 203 | 0.0 | 3.2 | 0.00 | 0.00 | 0.00 | 81 | 1015.4 |
| 20260507020044 | 6 | 103 | 0.0 | 3.2 | 0.00 | 0.00 | 0.00 | 81 | 1015.5 |
| 20260507015542 | 6 | 101 | 0.0 | 1.6 | 0.00 | 0.00 | 0.00 | 81 | 1015.5 |
| 20260507015042 | 6 | 100 | 0.0 | 1.6 | 0.00 | 0.00 | 0.00 | 80 | 1015.6 |
| 20260507014542 | 6 | 97 | 0.0 | 1.6 | 0.00 | 0.00 | 0.00 | 80 | 1015.7 |
| 20260507014043 | 6 | 95 | 0.0 | 3.2 | 0.00 | 0.00 | 0.00 | 80 | 1015.7 |
| 20260507013541 | 6 | 57 | 0.0 | 6.4 | 0.00 | 0.00 | 0.00 | 80 | 1015.7 |
| 20260507013041 | 6 | 189 | 0.0 | 6.4 | 0.00 | 0.00 | 0.00 | 79 | 1015.7 |
| 20260507012543 | 6 | 159 | 0.0 | 4.8 | 0.00 | 0.00 | 0.00 | 79 | 1015.8 |
| 20260507012039 | 6 | 146 | 0.0 | 3.2 | 0.00 | 0.00 | 0.00 | 79 | 1015.8 |
| 20260507011540 | 6 | 146 | 0.0 | 3.2 | 0.00 | 0.00 | 0.00 | 79 | 1015.8 |
| 20260507011038 | 6 | 175 | 0.0 | 3.2 | 0.00 | 0.00 | 0.00 | 79 | 1015.8 |
| 20260507010538 | 6 | 175 | 0.0 | 3.2 | 0.00 | 0.00 | 0.00 | 79 | 1015.8 |
| 20260507010043 | 6 | 175 | 0.0 | 1.6 | 0.00 | 0.00 | 0.00 | 79 | 1015.8 |
| 20260507005538 | 6 | 175 | 0.0 | 1.6 | 0.00 | 0.00 | 0.00 | 79 | 1015.8 |
| 20260507005041 | 6 | 175 | 0.0 | 6.4 | 0.00 | 0.00 | 0.00 | 79 | 1015.8 |
| 20260507004537 | 6 | 176 | 0.0 | 6.4 | 0.00 | 0.00 | 0.00 | 79 | 1015.8 |
| 20260507004037 | 6 | 246 | 0.0 | 6.4 | 0.00 | 0.00 | 0.00 | 79 | 1015.9 |
| 20260507003537 | 6 | 170 | 0.0 | 6.4 | 0.00 | 0.00 | 0.00 | 79 | 1015.9 |
| 20260507003036 | 6 | 179 | 0.0 | 4.8 | 0.00 | 0.00 | 0.00 | 80 | 1015.9 |
| 20260507002536 | 6 | 167 | 0.0 | 4.8 | 0.00 | 0.00 | 0.00 | 79 | 1015.9 |
| 20260507002035 | 6 | 148 | 0.0 | 3.2 | 0.00 | 0.00 | 0.00 | 80 | 1015.9 |
| 20260507001535 | 6 | 144 | 0.0 | 3.2 | 0.00 | 0.00 | 0.00 | 80 | 1016.0 |
| 20260507001034 | 6 | 187 | 0.0 | 4.8 | 0.00 | 0.00 | 0.00 | 80 | 1016.0 |
| 20260507000536 | 6 | 238 | 0.0 | 4.8 | 0.00 | 0.00 | 0.00 | 79 | 1015.9 |
| 20260507000036 | 6 | 132 | 0.0 | 3.2 | 0.00 | 0.00 | 0.00 | 79 | 1015.8 |
| 20260506235532 | 7 | 131 | 0.0 | 3.2 | 0.00 | 0.00 | 0.00 | 79 | 1015.8 |
| 20260506235031 | 7 | 157 | 0.0 | 6.4 | 0.00 | 0.00 | 0.00 | 79 | 1015.8 |
| 20260506234534 | 7 | 131 | 0.0 | 6.4 | 0.00 | 0.00 | 0.00 | 78 | 1015.9 |
| 20260506234031 | 7 | 205 | 0.0 | 3.2 | 0.00 | 0.00 | 0.00 | 78 | 1016.0 |
| 20260506233530 | 7 | 202 | 0.0 | 6.4 | 0.00 | 0.00 | 0.00 | 78 | 1016.0 |
| 20260506233030 | 7 | 161 | 0.0 | 6.4 | 0.00 | 0.00 | 0.00 | 78 | 1016.0 |
| 20260506232530 | 7 | 137 | 0.0 | 0.0 | 0.00 | 0.00 | 0.00 | 78 | 1016.0 |
| 20260506232028 | 7 | 137 | 0.0 | 1.6 | 0.00 | 0.00 | 0.00 | 77 | 1015.9 |
| 20260506231528 | 7 | 137 | 0.0 | 3.2 | 0.00 | 0.00 | 0.00 | 77 | 1015.8 |
| 20260506231026 | 7 | 136 | 0.0 | 3.2 | 0.00 | 0.00 | 0.00 | 77 | 1015.8 |
| 20260506230527 | 7 | 120 | 0.0 | 3.2 | 0.00 | 0.00 | 0.00 | 76 | 1015.8 |
| 20260506230026 | 7 | 140 | 0.0 | 3.2 | 0.00 | 0.00 | 0.00 | 76 | 1015.8 |
| 20260506225524 | 7 | 156 | 0.0 | 8.0 | 0.00 | 0.00 | 0.00 | 76 | 1015.8 |
| 20260506225024 | 7 | 161 | 1.6 | 8.0 | 0.00 | 0.00 | 0.00 | 76 | 1015.7 |
| 20260506224526 | 7 | 176 | 0.0 | 8.0 | 0.00 | 0.00 | 0.00 | 76 | 1015.7 |
| 20260506224025 | 7 | 122 | 0.0 | 6.4 | 0.00 | 0.00 | 0.00 | 76 | 1015.7 |
| 20260506223524 | 7 | 21 | 0.0 | 6.4 | 0.00 | 0.00 | 0.00 | 76 | 1015.7 |
| 20260506223024 | 7 | 326 | 0.0 | 6.4 | 0.00 | 0.00 | 0.00 | 76 | 1015.7 |
| 20260506222524 | 7 | 164 | 0.0 | 8.0 | 0.00 | 0.00 | 0.00 | 75 | 1015.7 |
| 20260506222024 | 7 | 129 | 0.0 | 8.0 | 0.00 | 0.00 | 0.00 | 76 | 1015.7 |
| 20260506221523 | 7 | 185 | 0.0 | 4.8 | 0.00 | 0.00 | 0.00 | 76 | 1015.6 |
| 20260506221022 | 7 | 153 | 0.0 | 3.2 | 0.00 | 0.00 | 0.00 | 76 | 1015.6 |
| 20260506220522 | 7 | 132 | 0.0 | 4.8 | 0.00 | 0.00 | 0.00 | 76 | 1015.6 |
| 20260506220029 | 7 | 131 | 0.0 | 4.8 | 0.00 | 0.00 | 0.00 | 76 | 1015.6 |
| 20260506215522 | 7 | 104 | 0.0 | 1.6 | 0.00 | 0.00 | 0.00 | 76 | 1015.6 |
| 20260506215022 | 7 | 90 | 0.0 | 1.6 | 0.00 | 0.00 | 0.00 | 76 | 1015.6 |
| 20260506214522 | 7 | 89 | 0.0 | 4.8 | 0.00 | 0.00 | 0.00 | 76 | 1015.6 |
| 20260506214022 | 7 | 89 | 0.0 | 4.8 | 0.00 | 0.00 | 0.00 | 76 | 1015.5 |
| 20260506213522 | 7 | 105 | 0.0 | 1.6 | 0.00 | 0.00 | 0.00 | 76 | 1015.5 |
| 20260506213028 | 7 | 101 | 0.0 | 3.2 | 0.00 | 0.00 | 0.00 | 76 | 1015.4 |
| 20260506212525 | 7 | 101 | 0.0 | 3.2 | 0.00 | 0.00 | 0.00 | 75 | 1015.5 |
| 20260506212025 | 7 | 102 | 0.0 | 1.6 | 0.00 | 0.00 | 0.00 | 75 | 1015.5 |
| 20260506211524 | 7 | 102 | 0.0 | 1.6 | 0.00 | 0.00 | 0.00 | 74 | 1015.4 |
| 20260506211021 | 7 | 102 | 0.0 | 3.2 | 0.00 | 0.00 | 0.00 | 74 | 1015.4 |
| 20260506210520 | 7 | 102 | 0.0 | 4.8 | 0.00 | 0.00 | 0.00 | 74 | 1015.4 |
| 20260506210025 | 7 | 124 | 0.0 | 3.2 | 0.00 | 0.00 | 0.00 | 74 | 1015.4 |
| 20260506205521 | 7 | 125 | 0.0 | 3.2 | 0.00 | 0.00 | 0.00 | 73 | 1015.4 |
| 20260506205022 | 8 | 128 | 0.0 | 0.0 | 0.00 | 0.00 | 0.00 | 73 | 1015.4 |
| 20260506204523 | 8 | 131 | 0.0 | 0.0 | 0.00 | 0.00 | 0.00 | 72 | 1015.3 |
| 20260506204019 | 8 | 131 | 0.0 | 0.0 | 0.00 | 0.00 | 0.00 | 71 | 1015.3 |
| 20260506203522 | 8 | 131 | 0.0 | 1.6 | 0.00 | 0.00 | 0.00 | 71 | 1015.3 |